STARLINK-6334, 57238

Orbit data source: Space-Track

STARLINK-6334, 57238 is a payload satellite owned by SpaceX/Seattle (US) in LEO that was launched on Fri, 07 Jul 2023 UTC via an FALCON 9 launch vehicle from the Air Force Western Test Range (AFWTR). Payload-class satellites include a variety of spacecraft equipped with specific instruments for various scientific and technological missions. These include communications satellites like Starlink; space stations such as the ISS; scientific satellites like the Hubble; Earth observation satellites from companies like Planet Labs, Umbra, and HawkEye 360; GPS; miniature CubeSats for education and research; and military/defense satellites.

Loading next visibility...
Identifier
57238, 2023-094W
Orbit
LEO
Country
Flag of USUS
Related business
Manufacturer
SpaceX/Seattle
Mission
Operational Commercial Communications
Bus & Motor
STARLINK, Unknown motor
Mass
305 kg wet, ~290 kg dry
Launch date (UTC)
2023-07-07 (3 years ago)
Launch vehicle
FALCON 9
Launch site
Air Force Western Test Range (AFWTR)
Object type
Payload
Rocket body
Debris
Shape & HBR
Box + 1 Pan, 10.1 m
Radar Cross Section
11.087 m², Large (>1 m²)

Expand to show TLE details & history
Last TLE update: 9 hours ago

TLE from 9 hours ago
0 STARLINK-6334
1 57238U 23094W   26167.72791353  .00001728  00000-0  72319-4 0  9996
2 57238  43.0022 180.8236 0001192 273.0580  87.0135 15.27568871162388
Epoch: 2026-06-16T17:28Z
TLE epoch observation values (Epoch: 2026-06-16T17:28:11.728Z)
Latitude
-0.00006°
Longitude
13.77888°
Altitude
482.816 km
Speed
7.626 km/s
True Right ascension
12h 03m 17s
True Declination
0° 00' 00"
Sunlit
Object was in daylight at epoch
Visualization orbit readout
Latitude
Unknown
Longitude
Unknown
Altitude
Unknown
Speed
Unknown
Apparent Right ascension
Unknown
Apparent Declination
Unknown
Sunlit
N/A
Visualization observer readout
Local Sidereal Time
13:20:22
Azimuth
Unknown
Elevation
Unknown
Doppler factor
Unknown
Orbital elements
Apogee altitude
485.845 km
Perigee altitude
484.209 km
Semi-major axis
6,863.164 km
Eccentricity
0.00012
Inclination
43.0022°
RAAN
180.8236°
Arg. of periapsis
273.058°
True anomaly
87.02714°
Mean anomaly
87.0135°
Eccentric anomaly
87.02032°
Mean motion
3.8173 °/min
Orbital period
94.31 mins
BSTAR
0.000072319
Loading maneuver chart data...
Computing Atmospheric mass density...
Loading historical data...
Loading historical data...
Loading historical data...
Loading historical data...
Loading historical data...
Loading historical data...
Loading historical data...

Documentation

Showing up to 5 results
|